This is the latest recevied weather packets stored in our database for station/object K9MWD. If no packets are shown the sender has not sent any weather packets the latest 10 day(s).
| Time | Temp. | Humidity | Pressure | Rain* | Wind** | Luminosity | Snow |
|---|---|---|---|---|---|---|---|
| 1777723554 | 11.67° C | 80% | 1020.5 hPa | 0 mm | - | 23 W/m² | - |
| 1777723252 | 11.67° C | 81% | 1020.5 hPa | 0 mm | - | 18 W/m² | - |
| 1777722950 | 11.11° C | 82% | 1020.3 hPa | 0 mm | - | 13 W/m² | - |
| 1777722645 | 11.11° C | 82% | 1020.2 hPa | 0 mm | - | 9 W/m² | - |
| 1777722342 | 11.11° C | 83% | 1020.1 hPa | 0 mm | - | 6 W/m² | - |
| 1777722039 | 10.56° C | 83% | 1019.9 hPa | 0 mm | - | 4 W/m² | - |
| 1777721737 | 10.56° C | 84% | 1019.8 hPa | 0 mm | - | 2 W/m² | - |
| 1777721435 | 10.56° C | 84% | 1019.6 hPa | 0 mm | - | 1 W/m² | - |
| 1777721132 | 11.11° C | 83% | 1019.8 hPa | 0 mm | - | 0 W/m² | - |
| 1777720830 | 11.11° C | 83% | 1019.6 hPa | 0 mm | - | 0 W/m² | - |
| 1777720527 | 11.67° C | 82% | 1019.6 hPa | 0 mm | - | 0 W/m² | - |
| 1777720224 | 11.67° C | 82% | 1019.6 hPa | 0 mm | - | 0 W/m² | - |
| 1777719922 | 11.67° C | 82% | 1019.6 hPa | 0 mm | - | 0 W/m² | - |
| 1777719619 | 11.67° C | 81% | 1019.4 hPa | 0 mm | - | 0 W/m² | - |
| 1777719316 | 11.67° C | 81% | 1019.7 hPa | 0 mm | - | 0 W/m² | - |
| 1777719014 | 11.67° C | 81% | 1019.5 hPa | 0 mm | - | 0 W/m² | - |
| 1777718711 | 11.67° C | 81% | 1019.2 hPa | 0 mm | - | 0 W/m² | - |
| 1777718409 | 11.67° C | 81% | 1019.2 hPa | 0 mm | - | 0 W/m² | - |
| 1777718106 | 11.67° C | 82% | 1019.3 hPa | 0 mm | - | 0 W/m² | - |
| 1777717803 | 11.11° C | 83% | 1019.4 hPa | 0 mm | - | 0 W/m² | - |
| 1777717500 | 11.11° C | 83% | 1019.3 hPa | 0 mm | - | 0 W/m² | - |
| 1777717196 | 11.11° C | 83% | 1019.3 hPa | 0 mm | - | 0 W/m² | - |
| 1777716895 | 11.11° C | 83% | 1019.5 hPa | 0 mm | - | 0 W/m² | - |
| 1777716593 | 11.11° C | 84% | 1019.3 hPa | 0 mm | - | 0 W/m² | - |
| 1777716291 | 11.11° C | 84% | 1019.4 hPa | 0 mm | - | 0 W/m² | - |
* Rain latest hour (hover to see other rain measurements)
** Current wind speed in m/s (hover to see current wind gust speed)